�N����,����,����,����,����,�C��,���x,�~����,�S�V����,�ő�u�ԕ���,,,,
,,,,,,,,,����,����,����,�N��,
yyyy/mm/dd,hh:mm:ss,(16),16����,m/s,��,%,mm,KW/�u,(16),16����,m/s,Time,
2014/8/1,1:00:00,2,�k��,0.9,20.1,95.8,0,0,1,�k�k��,2.6,43,
2014/8/1,2:00:00,11,���쐼,1.8,18.7,97.1,0,0,16,�k,2.7,19,
2014/8/1,3:00:00,13,���k��,1.8,18.1,97.5,0,0,12,��,3,51,
2014/8/1,4:00:00,12,��,1.4,17.8,99.6,0,0,1,�k�k��,2.8,10,
2014/8/1,5:00:00,14,�k��,1,17.6,99.4,0,0.02,12,��,3.2,2,
2014/8/1,6:00:00,9,��쐼,1,20,93.1,0,0.13,12,��,2.7,38,
2014/8/1,7:00:00,3,���k��,1.4,22.1,87.9,0,0.3,6,�쓌,2.8,47,
2014/8/1,8:00:00,3,���k��,1.9,25.3,81,0,0.51,3,���k��,3.1,46,
2014/8/1,9:00:00,4,��,3,23.6,83.7,0,0.68,5,���쓌,4.4,33,
2014/8/1,10:00:00,3,���k��,0.4,26.9,72.5,0,0.82,5,���쓌,4.6,20,
2014/8/1,11:00:00,8,��,1.2,29.9,58.4,0,0.9,8,��,4.3,44,
2014/8/1,12:00:00,7,�É�,0,30.1,59.2,0,0.95,8,��,2.5,0,
2014/8/1,13:00:00,8,�É�,0,31,57.5,0,0.93,6,�É�,0,0,
2014/8/1,14:00:00,7,�É�,0,29.9,58.3,0,0.84,4,�É�,0,0,
2014/8/1,15:00:00,6,�É�,0,28.8,60.9,0,0.69,6,�É�,0,0,
2014/8/1,16:00:00,7,�É�,0,29.1,60.3,0,0.52,8,�É�,0,0,
2014/8/1,17:00:00,5,�É�,0,27.2,71.7,0,0.29,8,��,2.3,31,
2014/8/1,18:00:00,2,�k��,2.9,22.6,87.3,0,0.09,2,�k��,5.6,29,
2014/8/1,19:00:00,3,���k��,3.4,21.5,92.2,0,0.02,3,���k��,7.2,45,
2014/8/1,20:00:00,3,���k��,2,21.6,91.7,0,0,2,�k��,4.7,28,
2014/8/1,21:00:00,16,�k,0.3,22.2,88.4,0,0,1,�k�k��,2.8,14,
2014/8/1,22:00:00,13,���k��,1.3,21.8,92,0,0,13,���k��,2.2,52,
2014/8/1,23:00:00,15,�É�,0.2,21.6,93.7,0,0,14,�k��,1.8,18,
2014/8/1,0:00:00,13,�É�,0.2,21.2,95,0,0,14,�k��,1.9,4,
2014/8/2,1:00:00,11,�É�,0,21,95.5,0,0,14,�k��,1.4,34,
2014/8/2,2:00:00,10,�É�,0,20.5,96.4,0,0,11,���쐼,1.3,43,
2014/8/2,3:00:00,11,���쐼,0.6,19.9,98.2,0,0,12,��,2.1,10,
2014/8/2,4:00:00,4,��,0.6,18.3,99.2,0,0,12,��,1.5,8,
2014/8/2,5:00:00,12,��,1,18.3,99.9,0,0.01,12,��,1.4,50,
2014/8/2,6:00:00,3,���k��,0.3,20.6,98.3,0,0.11,12,��,1.5,19,
2014/8/2,7:00:00,4,��,0.4,22.3,92.2,0,0.29,5,���쓌,1.6,59,
2014/8/2,8:00:00,7,��쓌,1.5,23.9,85.3,0,0.49,7,��쓌,3,28,
2014/8/2,9:00:00,6,�쓌,2.6,23.6,78.6,0,0.66,7,��쓌,3.9,59,
2014/8/2,10:00:00,6,�쓌,2.9,23.5,77.6,0,0.8,7,��쓌,4.4,56,
2014/8/2,11:00:00,6,�쓌,2.9,24,80.5,0,0.88,8,��,4.9,24,
2014/8/2,12:00:00,5,���쓌,1,24.2,79.3,0,0.92,5,���쓌,5.1,47,
2014/8/2,13:00:00,6,�쓌,0.8,23.8,74.8,0,0.92,7,��쓌,3.3,52,
2014/8/2,14:00:00,6,�쓌,2.1,23.3,81.2,0,0.83,6,�쓌,4.8,57,
2014/8/2,15:00:00,6,�쓌,2.7,23.1,84.2,0,0.69,6,�쓌,5.2,30,
2014/8/2,16:00:00,6,�쓌,2.7,21,88.5,0,0.48,6,�쓌,4.8,59,
2014/8/2,17:00:00,6,�쓌,1.6,19.8,96.8,0,0.15,8,��,4.2,4,
2014/8/2,18:00:00,6,�쓌,1.6,19.4,99.4,0,0.05,5,���쓌,2.9,8,
2014/8/2,19:00:00,6,�쓌,1.1,19.6,99.6,0,0.01,5,���쓌,2.7,0,
2014/8/2,20:00:00,4,��,1.6,19.9,98.6,0,0,4,��,3.2,30,
2014/8/2,21:00:00,3,���k��,2.7,19.8,98.8,0,0,3,���k��,4.5,54,
2014/8/2,22:00:00,2,�k��,1.8,19.8,98.6,0,0,3,���k��,3.9,5,
2014/8/2,23:00:00,1,�k�k��,1.8,19.6,98.6,0,0,1,�k�k��,3.2,50,
2014/8/2,0:00:00,1,�k�k��,1.4,19.2,99.3,0,0,1,�k�k��,3.5,36,
2014/8/3,1:00:00,2,�k��,1.6,18.8,99.6,0,0,1,�k�k��,2.5,57,
2014/8/3,2:00:00,16,�É�,0.1,19,99.8,0,0,1,�k�k��,2.5,14,
2014/8/3,3:00:00,1,�k�k��,0.5,19.2,99,0,0,1,�k�k��,2.2,17,
2014/8/3,4:00:00,12,��,0.6,19.3,97.7,0,0,2,�k��,1.3,0,
2014/8/3,5:00:00,2,�k��,0.9,19.4,96.6,0,0.01,1,�k�k��,2.1,39,
2014/8/3,6:00:00,5,���쓌,0.9,19.2,97.9,0,0.05,2,�k��,2,34,
2014/8/3,7:00:00,6,�쓌,1.3,19.3,99.2,0,0.09,6,�쓌,2.5,41,
2014/8/3,8:00:00,7,��쓌,1.2,20,97.6,0,0.17,7,��쓌,2.5,43,
2014/8/3,9:00:00,8,��,1.1,20.3,95,0,0.25,7,��쓌,2.6,59,
2014/8/3,10:00:00,6,�쓌,2,20.2,95.2,0,0.25,6,�쓌,2.8,56,
2014/8/3,11:00:00,5,���쓌,1.5,20.3,97.5,0,0.3,6,�쓌,3.2,42,
2014/8/3,12:00:00,4,��,2.7,20.2,95.5,0,0.29,5,���쓌,4.1,58,
2014/8/3,13:00:00,3,���k��,3.5,19.6,98.4,0,0.24,4,��,5.5,45,
2014/8/3,14:00:00,2,�k��,3.6,20,98.7,0,0.23,2,�k��,6.3,46,
2014/8/3,15:00:00,2,�k��,2.8,20.3,97.5,0,0.21,1,�k�k��,5,31,
2014/8/3,16:00:00,2,�k��,2.5,20.8,95.4,0,0.18,1,�k�k��,4.6,6,
2014/8/3,17:00:00,1,�k�k��,2.4,20.7,97.1,0,0.12,1,�k�k��,4.7,5,
2014/8/3,18:00:00,1,�k�k��,2.5,20.4,97.2,0,0.05,1,�k�k��,4,53,
2014/8/3,19:00:00,2,�k��,2.4,19.5,99.1,0,0.01,1,�k�k��,3.8,56,
2014/8/3,20:00:00,1,�k�k��,2.5,19.4,99.5,0,0,1,�k�k��,4.6,47,
2014/8/3,21:00:00,1,�k�k��,2.2,19.4,99.7,0,0,1,�k�k��,4.2,1,
2014/8/3,22:00:00,1,�k�k��,2.3,19.4,99.8,0,0,2,�k��,3.7,14,
2014/8/3,23:00:00,1,�k�k��,2.1,19.3,99.9,0,0,2,�k��,3.7,35,
2014/8/3,0:00:00,1,�k�k��,1.5,19.3,100,0,0,1,�k�k��,3.6,10,
2014/8/4,1:00:00,14,�k��,0.4,19,100,0,0,15,�k�k��,2.3,16,
2014/8/4,2:00:00,11,���쐼,1,18.9,100,0,0,11,���쐼,1.6,50,
2014/8/4,3:00:00,8,��,0.3,18.8,100,0,0,6,�쓌,1.2,48,
2014/8/4,4:00:00,7,��쓌,0.3,18.7,100,0,0,8,��,1.1,49,
2014/8/4,5:00:00,4,�É�,0,18.8,100,0,0.01,9,��쐼,1.3,9,
2014/8/4,6:00:00,13,���k��,0.3,19.2,100,0,0.06,12,��,1.6,59,
2014/8/4,7:00:00,1,�É�,0.1,19.5,100,0,0.09,12,��,1.3,0,
2014/8/4,8:00:00,6,�쓌,1.3,19.5,100,0,0.16,5,���쓌,2.1,50,
2014/8/4,9:00:00,7,��쓌,1.4,19.6,99.5,0,0.25,6,�쓌,2.6,37,
2014/8/4,10:00:00,6,�쓌,1.2,22.3,90.5,0,0.53,6,�쓌,2.8,31,
2014/8/4,11:00:00,7,��쓌,2.4,23.4,80.2,0,0.85,7,��쓌,3.9,52,
2014/8/4,12:00:00,7,��쓌,2.6,23.8,81.9,0,0.73,8,��,5.5,16,
2014/8/4,13:00:00,8,��,2.3,27.1,72.7,0,0.88,7,��쓌,5.1,30,
2014/8/4,14:00:00,9,��쐼,1.9,29.2,70.5,0,0.73,8,��,6.2,17,
2014/8/4,15:00:00,9,��쐼,3.7,26.9,72,0,0.61,4,��,7.4,5,
2014/8/4,16:00:00,9,��쐼,3.3,27.6,71.4,0,0.14,9,��쐼,6.2,43,
2014/8/4,17:00:00,9,��쐼,2.3,27.4,73.5,0,0.07,10,�쐼,5.1,2,
2014/8/4,18:00:00,10,�쐼,2.1,27.1,76.7,0,0.03,9,��쐼,4.6,7,
2014/8/4,19:00:00,9,��쐼,2.4,26.3,80.5,0,0.01,10,�쐼,5,8,
2014/8/4,20:00:00,7,��쓌,2.5,23.6,87.4,0,0,7,��쓌,4.8,33,
2014/8/4,21:00:00,8,��,2.4,24.2,84.3,0,0,7,��쓌,6.1,28,
2014/8/4,22:00:00,8,��,3,23.5,85.1,0,0,8,��,5.8,42,
2014/8/4,23:00:00,9,��쐼,4,23.9,85.2,0,0,9,��쐼,7,47,
2014/8/4,0:00:00,9,��쐼,3.1,24.4,88.6,0,0,10,�쐼,6.2,19,
2014/8/5,1:00:00,7,��쓌,2.3,22.8,91.8,0,0,8,��,3.9,48,
2014/8/5,2:00:00,9,��쐼,2.3,24.1,94.9,1,0,10,�쐼,7,19,
2014/8/5,3:00:00,8,��,2.8,22.2,91.9,0,0,9,��쐼,5.8,29,
2014/8/5,4:00:00,10,�쐼,5,25.8,82.9,0,0,10,�쐼,8.4,59,
2014/8/5,5:00:00,10,�쐼,3.8,25.8,82.7,0,0.01,10,�쐼,8.4,0,
2014/8/5,6:00:00,9,��쐼,4.3,26.3,80.8,0,0.05,10,�쐼,8.4,27,
2014/8/5,7:00:00,9,��쐼,4.5,25,82.5,0,0.1,9,��쐼,8.5,0,
2014/8/5,8:00:00,8,��,4,24.8,76.8,0,0.42,8,��,8.7,12,
2014/8/5,9:00:00,7,��쓌,3.3,23.6,80.8,0,0.58,8,��,7.1,43,
2014/8/5,10:00:00,9,��쐼,4.2,27.8,79,0,0.34,9,��쐼,7.6,57,
2014/8/5,11:00:00,10,�쐼,5.7,30.7,64.9,0,0.69,9,��쐼,11.2,58,
2014/8/5,12:00:00,10,�쐼,7.5,30,67.6,0,0.82,10,�쐼,15.3,26,
2014/8/5,13:00:00,10,�쐼,6.6,29.8,66.5,0,0.87,10,�쐼,11.8,2,
2014/8/5,14:00:00,10,�쐼,4.7,28.8,71.2,0,0.35,10,�쐼,10.6,8,
2014/8/5,15:00:00,8,��,4.5,26.8,75.3,0,0.18,8,��,8.2,57,
2014/8/5,16:00:00,8,��,3,25,81.5,0,0.24,7,��쓌,7.3,56,
2014/8/5,17:00:00,7,��쓌,3.5,24.7,80.7,0,0.25,7,��쓌,6.6,27,
2014/8/5,18:00:00,8,��,3.6,23.9,85.2,0,0.04,8,��,5.7,59,
2014/8/5,19:00:00,10,�쐼,1.6,23.3,90.2,0,0.01,8,��,4.4,5,
2014/8/5,20:00:00,12,��,1.5,24.3,89.4,0,0,14,�k��,2.9,55,
2014/8/5,21:00:00,9,��쐼,2,24.8,86.9,0,0,9,��쐼,3.3,53,
2014/8/5,22:00:00,2,�k��,1.7,23.6,92.5,0,0,10,�쐼,3.4,38,
2014/8/5,23:00:00,2,�k��,0.3,21.9,93.5,0,0,1,�k�k��,4.5,17,
2014/8/5,0:00:00,5,���쓌,1.4,21.7,97.9,0,0,5,���쓌,1.9,57,
2014/8/6,1:00:00,16,�k,1.4,21.6,98.1,0,0,1,�k�k��,2.9,31,
2014/8/6,2:00:00,2,�k��,3.1,20.6,99.2,0,0,2,�k��,5.1,53,
2014/8/6,3:00:00,2,�k��,3.2,20.9,99.5,0,0,2,�k��,6.3,43,
2014/8/6,4:00:00,1,�k�k��,2,21.3,99.1,0,0,2,�k��,5.8,5,
2014/8/6,5:00:00,4,��,2.5,21.7,96.8,0,0.01,4,��,4,55,
2014/8/6,6:00:00,3,���k��,4.2,18.8,98.2,0,0.02,3,���k��,7.4,43,
2014/8/6,7:00:00,2,�k��,3.2,18.8,99.7,0,0.04,3,���k��,7.3,3,
2014/8/6,8:00:00,4,��,1,19.3,98.1,0,0.08,2,�k��,5.4,15,
2014/8/6,9:00:00,4,��,1.7,19.7,98.1,0,0.08,3,���k��,2.5,59,
2014/8/6,10:00:00,2,�k��,2.5,19.2,99.6,0,0.11,3,���k��,4.5,40,
2014/8/6,11:00:00,3,���k��,2,19.6,99.7,0,0.14,3,���k��,4.9,24,
2014/8/6,12:00:00,4,��,2,20.2,99.4,0,0.17,3,���k��,3.2,45,
2014/8/6,13:00:00,2,�k��,2.7,21.7,91.4,0,0.23,3,���k��,3.7,52,
2014/8/6,14:00:00,5,���쓌,1.4,21.4,90.4,0,0.31,3,���k��,3.2,24,
2014/8/6,15:00:00,4,��,1.9,21.2,90.9,0,0.22,4,��,3.2,17,
2014/8/6,16:00:00,7,��쓌,0.4,21.8,88.4,0,0.28,6,�쓌,2.4,16,
2014/8/6,17:00:00,7,��쓌,1.8,20.6,91.5,0,0.16,6,�쓌,3,29,
2014/8/6,18:00:00,6,�쓌,0.7,20.1,94.8,0,0.05,7,��쓌,2.2,5,
2014/8/6,19:00:00,7,��쓌,0.8,19.5,98,0,0.01,6,�쓌,2,51,
2014/8/6,20:00:00,4,��,1.3,19.4,98.4,0,0,4,��,1.8,58,
2014/8/6,21:00:00,5,���쓌,0.4,18.7,98.9,0,0,5,���쓌,1.9,20,
2014/8/6,22:00:00,4,��,1.8,17.7,99.2,0,0,2,�k��,3.8,47,
2014/8/6,23:00:00,2,�k��,1.3,18,99.6,0,0,3,���k��,2.3,23,
2014/8/6,0:00:00,5,���쓌,0.9,17.8,99.9,1.5,0,3,���k��,2.2,6,
2014/8/7,1:00:00,5,���쓌,0.8,17.5,100,2.5,0,4,��,2.1,37,
2014/8/7,2:00:00,3,���k��,1.2,17.9,100,2,0,2,�k��,3,37,
2014/8/7,3:00:00,4,��,2.6,17.2,100,0.5,0,4,��,4.2,59,
2014/8/7,4:00:00,3,���k��,2,17.1,100,1,0,4,��,4.2,0,
2014/8/7,5:00:00,4,��,0.3,17.5,100,0,0.01,16,�k,2.5,11,
2014/8/7,6:00:00,3,���k��,0.5,17.7,100,0,0.02,2,�k��,2,59,
2014/8/7,7:00:00,15,�k�k��,1.8,18.8,100,0,0.04,16,�k,4.2,56,
2014/8/7,8:00:00,11,���쐼,1.9,19.3,100,0,0.04,1,�k�k��,3.3,1,
2014/8/7,9:00:00,10,�쐼,1.4,19.9,99.7,0,0.09,11,���쐼,2.4,0,
2014/8/7,10:00:00,15,�k�k��,0.7,20.7,98,0,0.1,12,��,3.2,59,
2014/8/7,11:00:00,12,��,1.3,21.4,95,0,0.15,12,��,3,0,
2014/8/7,12:00:00,1,�É�,0,22.5,90.2,0.5,0.23,13,���k��,3,23,
2014/8/7,13:00:00,7,��쓌,1.9,21.3,98.8,0.5,0.18,8,��,3.5,32,
2014/8/7,14:00:00,8,��,0.8,19.7,99.3,0.5,0.15,7,��쓌,4,22,
2014/8/7,15:00:00,8,��,2.4,21.5,93.4,0,0.41,7,��쓌,3.8,48,
2014/8/7,16:00:00,7,��쓌,1.9,21.3,92.6,0,0.46,5,���쓌,4.3,34,
2014/8/7,17:00:00,7,��쓌,0.9,20.6,94.4,0,0.09,7,��쓌,3.9,7,
2014/8/7,18:00:00,6,�쓌,0.5,20.1,96.1,0,0.03,6,�쓌,1.8,11,
2014/8/7,19:00:00,4,��,0.9,19.4,98.8,0.5,0.01,4,��,1.4,51,
2014/8/7,20:00:00,4,��,0.9,19,99,0,0,4,��,1.7,23,
2014/8/7,21:00:00,4,��,0.4,18.9,99.4,0,0,4,��,1.8,5,
2014/8/7,22:00:00,5,���쓌,0.7,18.8,99.5,0,0,6,�쓌,1.2,15,
2014/8/7,23:00:00,16,�k,0.6,18.8,99.8,0,0,1,�k�k��,1,54,
2014/8/7,0:00:00,13,���k��,1.3,19,99.9,0,0,12,��,2.4,50,
2014/8/8,1:00:00,16,�É�,0.1,19.2,99.7,0.5,0,1,�k�k��,3.1,13,
2014/8/8,2:00:00,14,�k��,1.4,19.3,99.4,4,0,12,��,3.1,18,
2014/8/8,3:00:00,6,�쓌,1.3,19,99.3,2.5,0,14,�k��,2.8,1,
2014/8/8,4:00:00,14,�k��,1.5,18.9,99.5,1.5,0,13,���k��,3,59,
2014/8/8,5:00:00,15,�k�k��,1.1,19,95.1,0,0,14,�k��,3.8,7,
2014/8/8,6:00:00,13,���k��,1.2,19.2,97.8,1,0.03,12,��,7.6,8,
2014/8/8,7:00:00,16,�k,0.3,19.8,96.8,1.5,0.06,12,��,3.7,29,
2014/8/8,8:00:00,14,�k��,0.6,20.1,96.7,0,0.09,10,�쐼,1.6,38,
2014/8/8,9:00:00,3,���k��,0.6,18.7,99.2,0,0.05,2,�k��,3.2,16,
2014/8/8,10:00:00,3,���k��,1.5,19.7,97.6,0,0.08,4,��,2.2,51,
2014/8/8,11:00:00,16,�k,0.8,19.9,95.8,1,0.12,1,�k�k��,1.8,1,
2014/8/8,12:00:00,10,�쐼,0.9,20.2,94.6,0.5,0.13,12,��,2.4,41,
2014/8/8,13:00:00,15,�k�k��,1,20.6,93.6,0.5,0.16,13,���k��,2.2,41,
2014/8/8,14:00:00,1,�k�k��,0.5,20.8,95.7,0,0.13,13,���k��,1.5,15,
2014/8/8,15:00:00,14,�k��,1.5,21.3,95.6,1,0.16,13,���k��,2.6,58,
2014/8/8,16:00:00,15,�k�k��,0.5,21.7,93.6,0,0.17,13,���k��,2.8,0,
2014/8/8,17:00:00,3,���k��,0.9,21.1,94.9,0,0.07,1,�k�k��,3.2,40,
2014/8/8,18:00:00,14,�k��,1,20.6,97,0.5,0.02,14,�k��,1.7,49,
2014/8/8,19:00:00,11,�É�,0.2,20.3,98.8,0,0.01,14,�k��,1.1,0,
2014/8/8,20:00:00,11,�É�,0,20,99.5,0,0,12,��,1.8,16,
2014/8/8,21:00:00,15,�É�,0.2,19.4,99.8,0,0,2,�k��,1.2,45,
2014/8/8,22:00:00,13,���k��,1.5,19.2,100,0,0,13,���k��,2.3,59,
2014/8/8,23:00:00,14,�k��,1,19,99.2,0.5,0,14,�k��,2.8,40,
2014/8/8,0:00:00,11,���쐼,0.6,18.5,99.2,0,0,2,�k��,2.3,17,
2014/8/9,1:00:00,14,�k��,0.8,18.4,99.7,0,0,14,�k��,2.1,27,
2014/8/9,2:00:00,3,���k��,0.6,17.9,99.8,0,0,14,�k��,2.1,13,
2014/8/9,3:00:00,13,���k��,0.6,17.5,100,0,0,4,��,1.3,10,
2014/8/9,4:00:00,12,��,1.3,16.8,100,0,0,12,��,1.7,52,
2014/8/9,5:00:00,12,��,1.1,17.1,100,0,0.01,13,���k��,1.8,13,
2014/8/9,6:00:00,13,���k��,1,18.5,100,0,0.11,13,���k��,1.4,56,
2014/8/9,7:00:00,14,�k��,0.6,20.3,91.1,0,0.22,13,���k��,2.1,14,
2014/8/9,8:00:00,13,���k��,0.6,20.9,88,0,0.37,14,�k��,2,35,
2014/8/9,9:00:00,3,���k��,1.2,21.6,85.8,0,0.5,5,���쓌,2.7,58,
2014/8/9,10:00:00,6,�쓌,2.3,21.5,81.6,0,0.62,5,���쓌,4.5,32,
2014/8/9,11:00:00,7,��쓌,2.2,22.6,83.2,0,0.89,6,�쓌,4.3,56,
2014/8/9,12:00:00,7,��쓌,2.6,22.3,82.6,0,0.88,8,��,4.3,43,
2014/8/9,13:00:00,7,��쓌,3.3,22,83.9,0,0.75,7,��쓌,4.7,54,
2014/8/9,14:00:00,8,��,3.7,21.7,83.1,0,0.62,9,��쐼,5.5,45,
2014/8/9,15:00:00,9,��쐼,3.1,21.7,84.5,0,0.49,8,��,6.2,24,
2014/8/9,16:00:00,8,��,2.2,21.5,83.4,0,0.32,9,��쐼,4.5,10,
2014/8/9,17:00:00,8,��,1.8,20.2,89.7,0,0.19,8,��,3.1,52,
2014/8/9,18:00:00,9,��쐼,1.7,19.2,93.3,0,0.07,8,��,3.7,20,
2014/8/9,19:00:00,1,�É�,0.1,18.1,96.7,0,0.01,8,��,2.4,0,
2014/8/9,20:00:00,15,�É�,0,17.6,98.4,0,0,2,�k��,1.2,29,
2014/8/9,21:00:00,3,���k��,0.7,16.6,99.6,0,0,3,���k��,1.8,48,
2014/8/9,22:00:00,2,�k��,0.8,16.3,99.7,0,0,1,�k�k��,1.6,36,
2014/8/9,23:00:00,1,�k�k��,0.9,15.6,100,0,0,2,�k��,2,43,
2014/8/9,0:00:00,3,���k��,0.8,16.3,100,0,0,2,�k��,2.4,5,
2014/8/10,1:00:00,1,�k�k��,0.9,16.9,100,0,0,2,�k��,2.4,9,
2014/8/10,2:00:00,14,�k��,0.5,16.8,100,0,0,1,�k�k��,1.5,0,
2014/8/10,3:00:00,14,�k��,0.6,16.9,100,0,0,13,���k��,1.4,36,
2014/8/10,4:00:00,14,�k��,0.3,17.2,100,0,0,14,�k��,1.1,12,
2014/8/10,5:00:00,1,�k�k��,0.5,17.5,100,0,0.01,1,�k�k��,2.5,37,
2014/8/10,6:00:00,9,��쐼,0.3,18.2,100,0,0.04,2,�k��,1.1,1,
2014/8/10,7:00:00,4,��,0.9,18.3,100,0,0.1,4,��,1.7,54,
2014/8/10,8:00:00,4,��,0.6,18.8,98.4,0,0.16,5,���쓌,2,59,
2014/8/10,9:00:00,3,���k��,3.1,18.4,96.5,0,0.22,2,�k��,4.5,56,
2014/8/10,10:00:00,3,���k��,3.4,18.3,96.5,0,0.22,3,���k��,5.2,53,
2014/8/10,11:00:00,4,��,3.4,17.8,98.1,0,0.22,4,��,5.4,23,
2014/8/10,12:00:00,3,���k��,3.4,17.6,97.9,0,0.19,4,��,5.9,23,
2014/8/10,13:00:00,2,�k��,2.9,17.8,96.8,0,0.14,3,���k��,5.1,9,
2014/8/10,14:00:00,3,���k��,3.4,17.5,97,0,0.11,3,���k��,5.1,58,
2014/8/10,15:00:00,2,�k��,2.7,17.1,97.6,0,0.09,2,�k��,5.6,15,
2014/8/10,16:00:00,2,�k��,2.4,17.1,97.4,0.5,0.06,1,�k�k��,3.5,6,
2014/8/10,17:00:00,1,�k�k��,2.3,16.9,97.4,0,0.05,2,�k��,4.2,7,
2014/8/10,18:00:00,2,�k��,2.7,16.2,98.4,0.5,0.02,2,�k��,4.8,42,
2014/8/10,19:00:00,2,�k��,3.4,16,99.5,2.5,0,2,�k��,5.8,55,
2014/8/10,20:00:00,3,���k��,3.9,15.8,99.6,2,0,3,���k��,7.4,25,
2014/8/10,21:00:00,2,�k��,3.1,15.7,99.6,9,0,2,�k��,7.3,16,
2014/8/10,22:00:00,2,�k��,2.5,15.6,99.7,10.5,0,3,���k��,5,20,
2014/8/10,23:00:00,2,�k��,3.2,16,99.7,11.5,0,2,�k��,8.4,42,
2014/8/10,0:00:00,1,�k�k��,3.5,15.9,99.3,18,0,2,�k��,7.8,8,
2014/8/11,1:00:00,14,�k��,2.3,16.3,99,14.5,0,1,�k�k��,5.4,37,
2014/8/11,2:00:00,15,�k�k��,2.1,16.3,99.3,20.5,0,13,���k��,7.7,21,
2014/8/11,3:00:00,14,�k��,2.9,16.2,99.1,14.5,0,14,�k��,7.2,40,
2014/8/11,4:00:00,14,�k��,4.1,16.3,97.8,6,0,14,�k��,6.7,54,
2014/8/11,5:00:00,13,���k��,2.7,16.3,99,4.5,0,14,�k��,7.7,1,
2014/8/11,6:00:00,13,���k��,3.7,16.3,99.3,8.5,0.01,12,��,5.7,0,
2014/8/11,7:00:00,13,���k��,3,17,99.4,6,0.03,12,��,6.5,0,
2014/8/11,8:00:00,14,�k��,2.2,17.4,99,4,0.09,14,�k��,5.2,3,
2014/8/11,9:00:00,8,��,3.7,21,99.7,1,0.08,8,��,9.2,56,
2014/8/11,10:00:00,10,�쐼,2.6,21.1,96.6,0,0.13,7,��쓌,10.8,7,
2014/8/11,11:00:00,9,��쐼,3.2,23,89.3,1,0.49,9,��쐼,6.8,45,
2014/8/11,12:00:00,8,��,5.8,22.9,88.2,0,0.71,8,��,13.2,54,
2014/8/11,13:00:00,8,��,5.4,22.4,87.8,0,0.57,7,��쓌,13.2,34,
2014/8/11,14:00:00,9,��쐼,4.7,20.8,94.4,0,0.22,9,��쐼,12.1,36,
2014/8/11,15:00:00,8,��,6.6,22.3,90.6,0,0.56,8,��,14,55,
2014/8/11,16:00:00,8,��,3.9,20.4,98,0.5,0.11,8,��,12.1,4,
2014/8/11,17:00:00,8,��,5,20.1,97.3,0,0.1,7,��쓌,12,16,
2014/8/11,18:00:00,8,��,2.7,19.6,98.1,0.5,0.06,9,��쐼,10.9,1,
2014/8/11,19:00:00,8,��,3.9,18.7,99.2,0,0.01,9,��쐼,9,7,
2014/8/11,20:00:00,9,��쐼,4.1,19.9,96.1,0,0,9,��쐼,7.6,32,
2014/8/11,21:00:00,10,�쐼,3.9,20.7,93,0,0,9,��쐼,8,28,
2014/8/11,22:00:00,1,�k�k��,2.3,18,95.1,0,0,9,��쐼,8.3,15,
2014/8/11,23:00:00,7,��쓌,2.5,22.1,83.8,0,0,5,���쓌,4.3,31,
2014/8/11,0:00:00,8,��,2.5,21.8,73.3,0,0,8,��,7.9,44,
2014/8/12,1:00:00,5,���쓌,2.8,19.5,82,0,0,8,��,6.7,7,
2014/8/12,2:00:00,3,���k��,2.1,18.1,87.9,0,0,6,�쓌,6.2,15,
2014/8/12,3:00:00,11,���쐼,3.6,22.8,71.9,0,0,10,�쐼,8.5,59,
2014/8/12,4:00:00,1,�k�k��,1.1,18.4,87.5,0,0,10,�쐼,7.4,15,
2014/8/12,5:00:00,16,�k,1.9,19.8,83.4,0,0.01,2,�k��,5.4,6,
2014/8/12,6:00:00,2,�k��,1.4,19.5,91.8,0,0.1,16,�k,3.6,1,
2014/8/12,7:00:00,7,��쓌,0.8,25.1,67.2,0,0.33,2,�k��,3.8,23,
2014/8/12,8:00:00,8,��,1.3,24.1,62.7,0,0.38,7,��쓌,3.2,29,
2014/8/12,9:00:00,8,��,1.1,23.2,68.2,0,0.28,8,��,4,28,
2014/8/12,10:00:00,6,�쓌,2.7,23.8,64.2,0,0.38,6,�쓌,5.7,49,
2014/8/12,11:00:00,7,��쓌,2.7,24.9,56.9,0,0.58,6,�쓌,5.7,9,
2014/8/12,12:00:00,6,�쓌,3.3,25.4,58,0,0.76,6,�쓌,5.5,47,
2014/8/12,13:00:00,7,��쓌,3.4,23.6,63,0,0.65,8,��,5.8,50,
2014/8/12,14:00:00,8,��,2.3,21.6,75.7,0,0.51,7,��쓌,6.1,25,
2014/8/12,15:00:00,8,��,2.1,22.7,65,0,0.21,8,��,4.5,32,
2014/8/12,16:00:00,9,��쐼,3.2,20.8,72.6,0,0.15,8,��,6,23,
2014/8/12,17:00:00,10,�쐼,4.5,21.7,70.7,0,0.09,9,��쐼,7.3,57,
2014/8/12,18:00:00,9,��쐼,1.3,21.2,75.8,0,0.03,9,��쐼,7.2,3,
2014/8/12,19:00:00,1,�k�k��,0.6,19.2,86.9,0,0,9,��쐼,2.5,5,
2014/8/12,20:00:00,6,�쓌,1.6,17.7,89.9,0,0,6,�쓌,5.1,16,
2014/8/12,21:00:00,7,��쓌,2.2,17.3,93,0,0,8,��,4.5,33,
2014/8/12,22:00:00,6,�쓌,1.5,16.6,95.4,0,0,6,�쓌,2.9,33,
2014/8/12,23:00:00,2,�k��,1.3,15.9,98.1,0,0,1,�k�k��,1.9,36,
2014/8/12,0:00:00,7,�É�,0.2,15.8,98.6,0,0,16,�k,2.4,34,
2014/8/13,1:00:00,11,���쐼,0.5,15.1,99.7,0,0,13,���k��,2.8,25,
2014/8/13,2:00:00,10,�쐼,0.3,14.4,99.8,0,0,13,���k��,1.8,21,
2014/8/13,3:00:00,12,��,0.3,13.8,100,0,0,14,�k��,1.8,22,
2014/8/13,4:00:00,16,�k,1.1,14.4,100,0,0,10,�쐼,3.4,27,
2014/8/13,5:00:00,15,�k�k��,0.9,13.7,99.2,0,0.01,15,�k�k��,2.6,18,
2014/8/13,6:00:00,8,��,2.8,20.1,79.6,0,0.14,9,��쐼,5.8,39,
2014/8/13,7:00:00,8,��,3.4,17.9,87.6,0,0.14,8,��,6,53,
2014/8/13,8:00:00,9,��쐼,4.9,20,84.2,0,0.13,9,��쐼,8.2,49,
2014/8/13,9:00:00,11,���쐼,2.6,21.3,87.1,0,0.29,9,��쐼,7.4,0,
2014/8/13,10:00:00,10,�쐼,4.6,24.4,69.7,0,0.67,10,�쐼,7.8,59,
2014/8/13,11:00:00,9,��쐼,5.7,24.2,71.5,0,0.93,8,��,9.9,56,
2014/8/13,12:00:00,9,��쐼,4,24.9,61.6,0,0.84,9,��쐼,9.5,31,
2014/8/13,13:00:00,9,��쐼,3.4,25.3,64,0,0.79,9,��쐼,7.2,22,
2014/8/13,14:00:00,11,���쐼,6.3,26.6,57.9,0,0.85,10,�쐼,9.9,49,
2014/8/13,15:00:00,10,�쐼,4.8,26.3,53.3,0,0.71,11,���쐼,9.8,38,
2014/8/13,16:00:00,10,�쐼,3.6,25.8,57.6,0,0.55,10,�쐼,9,11,
2014/8/13,17:00:00,10,�쐼,3.7,24.6,59.7,0,0.36,10,�쐼,8.3,11,
2014/8/13,18:00:00,15,�k�k��,0.5,22.1,78,0,0.16,10,�쐼,5.1,5,
2014/8/13,19:00:00,11,���쐼,1.7,20.2,76.4,0,0.01,12,��,3.5,33,
2014/8/13,20:00:00,9,��쐼,1.7,18,85.6,0,0,1,�k�k��,2.9,19,
2014/8/13,21:00:00,13,���k��,3.2,17.3,84.5,0,0,12,��,5,44,
2014/8/13,22:00:00,13,���k��,2.3,18.3,81.1,0,0,12,��,5.5,20,
2014/8/13,23:00:00,13,���k��,1.5,15.5,91.1,0,0,13,���k��,3.4,1,
2014/8/13,0:00:00,14,�É�,0,14.7,95.7,0,0,7,��쓌,2.9,27,
2014/8/14,1:00:00,16,�k,1,13.6,98.6,0,0,1,�k�k��,1.8,52,
2014/8/14,2:00:00,14,�k��,1.4,13.5,97.3,0,0,13,���k��,2.5,21,
2014/8/14,3:00:00,11,���쐼,1.3,13.5,97.5,0,0,13,���k��,2.5,29,
2014/8/14,4:00:00,13,���k��,1.9,13,97.9,0,0,13,���k��,2.9,40,
2014/8/14,5:00:00,13,���k��,1.9,13.2,97.9,0,0.02,13,���k��,3.6,49,
2014/8/14,6:00:00,12,��,1.3,15.4,91.1,0,0.15,12,��,3,30,
2014/8/14,7:00:00,12,��,1.3,19.2,83.6,0,0.35,13,���k��,2.2,30,
2014/8/14,8:00:00,10,�쐼,1.8,21.4,70.6,0,0.53,10,�쐼,3.6,17,
2014/8/14,9:00:00,13,���k��,0.6,23.3,71.9,0,0.68,11,���쐼,2.7,1,
2014/8/14,10:00:00,6,�쓌,3.4,21,81,0,0.72,6,�쓌,5.6,46,
2014/8/14,11:00:00,7,��쓌,2.5,22,75.9,0,0.73,6,�쓌,4.9,0,
2014/8/14,12:00:00,6,�쓌,2.2,21.5,75.4,0,0.82,5,���쓌,4.5,14,
2014/8/14,13:00:00,7,��쓌,2.7,21.6,75.9,0,0.75,7,��쓌,4.6,10,
2014/8/14,14:00:00,6,�쓌,2.4,22,72.4,0,0.62,6,�쓌,4.2,33,
2014/8/14,15:00:00,4,��,2.5,20.7,82.1,0,0.53,5,���쓌,5.2,27,
2014/8/14,16:00:00,4,��,2.6,20.5,82,0,0.43,5,���쓌,4.2,12,
2014/8/14,17:00:00,4,��,1.8,20.7,84,0,0.35,4,��,3.8,14,
2014/8/14,18:00:00,3,���k��,0.7,18.9,88.8,0,0.15,4,��,2.8,13,
2014/8/14,19:00:00,16,�k,1.2,16.8,96,0,0.01,16,�k,1.6,59,
2014/8/14,20:00:00,2,�k��,1.2,15.6,97.4,0,0,2,�k��,2,47,
2014/8/14,21:00:00,14,�k��,0.7,15.8,99.2,0,0,2,�k��,1.9,0,
2014/8/14,22:00:00,15,�k�k��,0.5,15.9,98.4,0,0,16,�k,1.6,42,
2014/8/14,23:00:00,15,�k�k��,0.9,15.8,99.3,0,0,14,�k��,1.8,50,
2014/8/14,0:00:00,14,�k��,1.8,15.5,100,0,0,14,�k��,2.5,54,
2014/8/15,1:00:00,13,���k��,1.4,14.9,99.9,0,0,14,�k��,2.9,9,
2014/8/15,2:00:00,13,���k��,1.8,14.6,98.8,0,0,14,�k��,2.9,43,
2014/8/15,3:00:00,12,��,1.3,14.5,99.6,0,0,13,���k��,2.9,3,
2014/8/15,4:00:00,13,���k��,1.4,14.5,99.2,0,0,13,���k��,2.5,4,
2014/8/15,5:00:00,13,���k��,1.5,14.4,99.4,0,0.01,14,�k��,2.6,36,
2014/8/15,6:00:00,13,���k��,0.6,16.4,95.6,0,0.12,13,���k��,3.1,35,
2014/8/15,7:00:00,14,�k��,0.4,18.5,87.2,0,0.28,12,��,2.4,5,
2014/8/15,8:00:00,8,�É�,0.2,19.6,87.6,0,0.26,5,���쓌,1.7,19,
2014/8/15,9:00:00,6,�쓌,1.7,18.5,90.2,0,0.21,6,�쓌,2.4,57,
2014/8/15,10:00:00,7,��쓌,1.1,18.1,91.6,0,0.16,6,�쓌,2.6,27,
2014/8/15,11:00:00,7,��쓌,0.9,18.8,85.1,0,0.32,6,�쓌,2.4,28,
2014/8/15,12:00:00,5,���쓌,2.2,18.5,86.5,0,0.24,4,��,2.9,49,
2014/8/15,13:00:00,7,��쓌,1,18.6,84.8,0,0.26,4,��,2.5,4,
2014/8/15,14:00:00,7,��쓌,1.1,17.9,87.1,0,0.15,6,�쓌,2.2,1,
2014/8/15,15:00:00,8,�É�,0.2,18.8,86.4,0,0.2,7,��쓌,1.6,4,
2014/8/15,16:00:00,13,���k��,0.3,19.2,83.9,0,0.2,15,�k�k��,2.1,41,
2014/8/15,17:00:00,7,��쓌,1.2,18.3,87,0,0.07,7,��쓌,2.8,41,
2014/8/15,18:00:00,12,��,0.8,18.5,91.1,0,0.05,13,���k��,1.7,49,
2014/8/15,19:00:00,2,�k��,1,17.1,96.2,0,0.01,1,�k�k��,1.7,49,
2014/8/15,20:00:00,2,�k��,1.1,17,94.7,0,0,1,�k�k��,2,40,
2014/8/15,21:00:00,14,�k��,0.6,16.5,97.5,0,0,16,�k,1.3,25,
2014/8/15,22:00:00,6,�É�,0.1,15.2,99.3,0,0,14,�k��,1,7,
2014/8/15,23:00:00,1,�k�k��,1.4,15.6,98.4,0,0,1,�k�k��,1.9,55,
2014/8/15,0:00:00,2,�k��,1.9,15.9,96.1,0,0,1,�k�k��,3.3,58,
2014/8/16,1:00:00,1,�k�k��,2,15.8,96.4,0,0,1,�k�k��,3.3,38,
2014/8/16,2:00:00,16,�k,1,15.7,95.8,0,0,1,�k�k��,3.5,15,
2014/8/16,3:00:00,14,�k��,1.2,14.7,96.5,0,0,14,�k��,1.7,55,
2014/8/16,4:00:00,13,���k��,1,14,98.9,0,0,14,�k��,2.1,49,
2014/8/16,5:00:00,13,���k��,1.9,13.4,99.7,0,0.01,13,���k��,2.5,59,
2014/8/16,6:00:00,13,���k��,0.7,15.5,95.9,0,0.12,13,���k��,2.5,4,
2014/8/16,7:00:00,2,�k��,0.6,18.4,88,0,0.31,3,���k��,1.7,56,
2014/8/16,8:00:00,4,��,1.6,19.8,82.1,0,0.49,4,��,3,50,
2014/8/16,9:00:00,4,��,2.3,19.3,82.4,0,0.47,4,��,3.3,53,
2014/8/16,10:00:00,5,���쓌,2.6,19.2,83.7,0,0.47,4,��,3.8,25,
2014/8/16,11:00:00,6,�쓌,2.3,19.6,84.2,0,0.51,6,�쓌,3.8,55,
2014/8/16,12:00:00,7,��쓌,2.6,19,84.8,0,0.53,6,�쓌,4.1,17,
2014/8/16,13:00:00,6,�쓌,2.5,19.9,80.5,0,0.61,6,�쓌,4.6,31,
2014/8/16,14:00:00,5,���쓌,2.6,20.3,84,0,0.71,6,�쓌,4.9,4,
2014/8/16,15:00:00,6,�쓌,2.5,19.8,84.4,0,0.56,5,���쓌,4.7,5,
2014/8/16,16:00:00,7,��쓌,1.6,19,88.6,0,0.27,8,��,4.5,11,
2014/8/16,17:00:00,9,��쐼,1.7,18.8,89.9,0,0.17,7,��쓌,3.3,21,
2014/8/16,18:00:00,9,��쐼,0.6,18.4,91.2,0,0.04,9,��쐼,3.2,7,
2014/8/16,19:00:00,11,���쐼,0.8,18.2,93.4,0,0,10,�쐼,1.7,20,
2014/8/16,20:00:00,5,���쓌,0.5,17.3,95.7,0,0,10,�쐼,1.3,1,
2014/8/16,21:00:00,2,�k��,0.6,16.5,98.3,0,0,5,���쓌,1.5,12,
2014/8/16,22:00:00,3,���k��,0.4,16.7,98.9,0,0,3,���k��,0.8,52,
2014/8/16,23:00:00,1,�k�k��,1,17,98.9,0,0,1,�k�k��,1.7,45,
2014/8/16,0:00:00,4,�É�,0,17.2,98,0,0,1,�k�k��,0.9,6,
2014/8/17,1:00:00,2,�k��,0.5,17.2,98.5,0,0,1,�k�k��,1.1,30,
2014/8/17,2:00:00,16,�É�,0.1,17.2,97.8,0,0,2,�k��,0.9,9,
2014/8/17,3:00:00,13,���k��,0.4,17.1,98.7,0,0,1,�k�k��,1.1,9,
2014/8/17,4:00:00,3,�É�,0,17.2,98,0,0,13,���k��,0.9,5,
2014/8/17,5:00:00,16,�É�,0.1,17.2,98.8,0,0,1,�k�k��,0.6,16,
2014/8/17,6:00:00,1,�k�k��,0.7,17.8,96.8,0,0.05,1,�k�k��,1.6,36,
2014/8/17,7:00:00,16,�k,0.6,18.3,94,0,0.08,1,�k�k��,1.2,56,
2014/8/17,8:00:00,8,��,0.7,19.2,89.6,0,0.15,9,��쐼,1.4,50,
2014/8/17,9:00:00,7,��쓌,1.1,19.2,90.2,0,0.23,5,���쓌,2.8,40,
2014/8/17,10:00:00,7,��쓌,1.9,19.5,87.2,0,0.34,7,��쓌,3.2,54,
2014/8/17,11:00:00,7,��쓌,2.6,19.4,84.4,0,0.42,7,��쓌,4.5,56,
2014/8/17,12:00:00,7,��쓌,2.6,19.5,83.5,0,0.4,8,��,5.4,32,
2014/8/17,13:00:00,7,��쓌,3,20,78.7,0,0.45,7,��쓌,5.6,54,
2014/8/17,14:00:00,7,��쓌,2.7,19.9,78.2,0,0.51,8,��,5,15,
2014/8/17,15:00:00,8,��,2.1,19.3,80.7,0,0.36,7,��쓌,4.6,41,